DW5977 Weather Reports


Display with metric or nautical units.
time (UTC)temp
F
wind
direction
speed
MPH
gust
MPH
rain 1hr
in
rain 24hr
in
rain mn
in
humidity
%
barometer
mb
20260906023003 60 0 0.0 0.0 0.00 0.00 0.00 89 1015.3
20260906022503 60 0 0.0 0.0 0.00 0.00 0.00 89 1015.3
20260906022024 60 0 0.0 0.0 0.00 0.00 0.00 88 1015.3
20260906021503 60 0 0.0 0.0 0.00 0.00 0.00 87 1015.4
20260906021003 60 0 0.0 0.0 0.00 0.00 0.00 87 1015.3
20260906020503 60 0 0.0 0.0 0.00 0.00 0.00 87 1015.1
20260906020003 60 0 0.0 0.0 0.00 0.00 0.00 87 1015.0
20260906015503 60 0 0.0 0.0 0.00 0.00 0.00 87 1015.0
20260906015003 61 0 0.0 0.0 0.00 0.00 0.00 86 1015.0
20260906014524 61 0 0.0 0.0 0.00 0.00 0.00 86 1015.0
20260906014003 61 0 0.0 0.0 0.00 0.00 0.00 86 1015.0
20260906013503 61 0 0.0 0.0 0.00 0.00 0.00 86 1015.0
20260906013024 61 0 0.0 0.0 0.00 0.00 0.00 85 1014.9
20260906012503 61 0 0.0 0.0 0.00 0.00 0.00 85 1015.0
20260906012003 62 0 0.0 0.0 0.00 0.00 0.00 85 1015.0
20260906011503 62 0 0.0 0.0 0.00 0.00 0.00 84 1015.0
20260906011024 62 0 0.0 0.0 0.00 0.00 0.00 84 1014.9
20260906010503 62 0 0.0 0.0 0.00 0.00 0.00 83 1014.8
20260906010003 62 0 0.0 0.0 0.00 0.00 0.00 83 1014.7
20260906005524 62 0 0.0 0.0 0.00 0.00 0.00 83 1014.6
20260906005003 63 0 0.0 0.0 0.00 0.00 0.00 83 1014.7
20260906004524 63 0 0.0 0.0 0.00 0.00 0.00 82 1014.7
20260906004003 63 0 0.0 0.0 0.00 0.00 0.00 82 1014.6
20260906003503 63 0 0.0 0.0 0.00 0.00 0.00 81 1014.6
20260906003003 64 0 0.0 0.0 0.00 0.00 0.00 80 1014.6
20260906002503 64 0 0.0 0.0 0.00 0.00 0.00 80 1014.6
20260906002003 64 0 0.0 0.0 0.00 0.00 0.00 79 1014.6
20260906001503 65 0 0.0 0.0 0.00 0.00 0.00 78 1014.6
20260906001003 65 0 0.0 0.0 0.00 0.00 0.00 77 1014.6
20260906000524 66 0 0.0 0.0 0.00 0.00 0.00 76 1014.6
20260906000003 66 0 0.0 0.0 0.00 0.00 0.00 75 1014.5
20260905235503 67 0 0.0 0.0 0.00 0.00 0.00 73 1014.5
20260905235003 68 0 0.0 0.0 0.00 0.00 0.00 73 1014.5
20260905234503 68 0 0.0 0.0 0.00 0.00 0.00 71 1014.5
20260905234003 69 0 0.0 0.0 0.00 0.00 0.00 69 1014.6
20260905233503 69 0 0.0 0.0 0.00 0.00 0.00 67 1014.5
20260905233003 70 5 0.0 2.0 0.00 0.00 0.00 66 1014.6
20260905232503 70 5 1.0 4.0 0.00 0.00 0.00 65 1014.7
20260905232003 71 5 1.0 4.0 0.00 0.00 0.00 64 1014.6
20260905231503 71 5 1.0 4.0 0.00 0.00 0.00 63 1014.6
20260905231003 72 5 1.0 4.0 0.00 0.00 0.00 62 1014.4
20260905230524 72 5 1.0 4.0 0.00 0.00 0.00 61 1014.5
20260905230003 73 5 1.0 3.0 0.00 0.00 0.00 61 1014.5
20260905225503 73 5 1.0 4.0 0.00 0.00 0.00 59 1014.5
20260905225003 73 5 2.0 4.0 0.00 0.00 0.00 58 1014.5
20260905224503 73 5 1.0 3.0 0.00 0.00 0.00 58 1014.4
20260905224024 73 5 1.0 4.0 0.00 0.00 0.00 58 1014.4
20260905223503 73 5 2.0 5.0 0.00 0.00 0.00 58 1014.5
20260905223003 73 5 2.0 5.0 0.00 0.00 0.00 57 1014.4
20260905222503 74 5 2.0 5.0 0.00 0.00 0.00 57 1014.5
20260905222003 74 5 2.0 5.0 0.00 0.00 0.00 56 1014.5
20260905221524 74 5 2.0 5.0 0.00 0.00 0.00 57 1014.5
20260905221003 74 5 2.0 9.0 0.00 0.00 0.00 59 1014.5
20260905220503 74 5 2.0 9.0 0.00 0.00 0.00 59 1014.4
20260905220003 74 5 2.0 8.0 0.00 0.00 0.00 57 1014.4
20260905215504 74 5 3.0 8.0 0.00 0.00 0.00 58 1014.4
20260905215003 74 5 3.0 9.0 0.00 0.00 0.00 58 1014.3
20260905214503 74 2 3.0 9.0 0.00 0.00 0.00 58 1014.4
20260905214003 74 353 3.0 9.0 0.00 0.00 0.00 57 1014.3
20260905213503 74 345 3.0 8.0 0.00 0.00 0.00 57 1014.2
20260905213003 74 346 2.0 8.0 0.00 0.00 0.00 58 1014.2
20260905212503 74 350 1.0 4.0 0.00 0.00 0.00 60 1014.2
20260905212003 73 350 1.0 5.0 0.00 0.00 0.00 62 1014.1
20260905211503 72 350 2.0 5.0 0.00 0.00 0.00 59 1014.1
20260905211003 73 350 3.0 6.0 0.00 0.00 0.00 58 1014.1
20260905210524 73 350 3.0 6.0 0.00 0.00 0.00 58 1014.1
20260905210024 72 350 2.0 5.0 0.00 0.00 0.00 60 1014.0
20260905205503 72 350 2.0 6.0 0.00 0.00 0.00 59 1014.0
20260905205003 73 350 2.0 4.0 0.00 0.00 0.00 58 1014.0
20260905204524 73 350 2.0 5.0 0.00 0.00 0.00 56 1013.9
20260905204003 73 350 2.0 9.0 0.00 0.00 0.00 57 1013.9
20260905203503 73 353 2.0 9.0 0.00 0.00 0.00 58 1013.8
20260905203003 74 353 3.0 8.0 0.00 0.00 0.00 57 1013.9
20260905202524 74 352 3.0 8.0 0.00 0.00 0.00 55 1013.9
20260905202003 74 350 2.0 5.0 0.00 0.00 0.00 57 1013.9
20260905201503 74 350 2.0 5.0 0.00 0.00 0.00 58 1013.9
20260905201003 73 350 2.0 5.0 0.00 0.00 0.00 57 1013.9
20260905200503 73 350 2.0 5.0 0.00 0.00 0.00 58 1014.0
20260905200024 73 350 2.0 8.0 0.00 0.00 0.00 58 1014.1
20260905195503 74 350 2.0 8.0 0.00 0.00 0.00 57 1014.1
20260905195003 75 350 2.0 8.0 0.00 0.00 0.00 57 1014.1
20260905194503 75 350 3.0 8.0 0.00 0.00 0.00 57 1014.0
20260905194003 75 350 3.0 6.0 0.00 0.00 0.00 55 1014.0
20260905193503 74 347 3.0 10.0 0.00 0.00 0.00 57 1013.9
20260905193003 74 344 3.0 10.0 0.00 0.00 0.00 57 1014.0
20260905192503 73 343 2.0 6.0 0.00 0.00 0.00 60 1014.0
20260905192003 73 343 1.0 6.0 0.00 0.00 0.00 59 1014.1
20260905191503 74 343 2.0 9.0 0.00 0.00 0.00 58 1014.2
20260905191003 74 345 3.0 9.0 0.00 0.00 0.00 56 1014.1
20260905190503 76 348 2.0 9.0 0.00 0.00 0.00 54 1014.2
20260905190003 76 350 2.0 5.0 0.00 0.00 0.00 53 1014.2
20260905185503 76 351 2.0 8.0 0.00 0.00 0.00 54 1014.4
20260905185003 76 353 2.0 8.0 0.00 0.00 0.00 55 1014.4
20260905184503 75 355 2.0 5.0 0.00 0.00 0.00 55 1014.3
20260905184003 74 355 2.0 6.0 0.00 0.00 0.00 58 1014.2
20260905183503 74 357 3.0 8.0 0.00 0.00 0.00 55 1014.2
20260905183003 76 360 2.0 8.0 0.00 0.00 0.00 53 1014.3
20260905182503 76 3 2.0 8.0 0.00 0.00 0.00 54 1014.1
20260905182003 75 5 3.0 8.0 0.00 0.00 0.00 55 1014.2
20260905181503 75 6 3.0 8.0 0.00 0.00 0.00 57 1014.3
20260905181025 74 9 2.0 8.0 0.00 0.00 0.00 58 1014.1
20260905180524 74 14 2.0 8.0 0.00 0.00 0.00 58 1014.3
20260905180003 74 15 1.0 5.0 0.00 0.00 0.00 57 1014.2
20260905175503 73 15 1.0 3.0 0.00 0.00 0.00 60 1014.1
20260905175003 73 16 2.0 7.0 0.00 0.00 0.00 59 1014.2
20260905174524 73 18 3.0 7.0 0.00 0.00 0.00 59 1014.3
20260905174003 73 19 2.0 7.0 0.00 0.00 0.00 59 1014.2
20260905173503 73 19 2.0 7.0 0.00 0.00 0.00 58 1014.2
20260905173003 73 20 3.0 9.0 0.00 0.00 0.00 61 1014.2
20260905172503 73 23 3.0 9.0 0.00 0.00 0.00 58 1014.3
20260905172003 73 27 1.0 8.0 0.00 0.00 0.00 59 1014.3
20260905171503 72 27 1.0 4.0 0.00 0.00 0.00 63 1014.3
20260905171003 72 28 3.0 9.0 0.00 0.00 0.00 61 1014.3
20260905170503 73 30 3.0 9.0 0.00 0.00 0.00 60 1014.4
20260905170003 73 32 2.0 5.0 0.00 0.00 0.00 64 1014.4
20260905165503 72 32 1.0 4.0 0.00 0.00 0.00 66 1014.3
20260905165024 72 32 1.0 4.0 0.00 0.00 0.00 64 1014.3
20260905164524 72 32 1.0 5.0 0.00 0.00 0.00 66 1014.4
20260905164003 72 32 2.0 6.0 0.00 0.00 0.00 65 1014.5
20260905163524 72 34 3.0 8.0 0.00 0.00 0.00 64 1014.5
20260905163003 72 34 3.0 8.0 0.00 0.00 0.00 62 1014.4
20260905162503 72 34 2.0 5.0 0.00 0.00 0.00 66 1014.4
20260905162003 72 34 2.0 6.0 0.00 0.00 0.00 65 1014.4
20260905161524 72 34 2.0 8.0 0.00 0.00 0.00 64 1014.5
20260905161003 72 32 2.0 10.0 0.00 0.00 0.00 65 1014.4
20260905160503 72 33 3.0 10.0 0.00 0.00 0.00 66 1014.6
20260905160024 72 37 3.0 9.0 0.00 0.00 0.00 65 1014.6
20260905155503 71 43 3.0 6.0 0.00 0.00 0.00 67 1014.6
20260905155003 71 45 2.0 5.0 0.00 0.00 0.00 67 1014.6
20260905154503 71 47 2.0 9.0 0.00 0.00 0.00 67 1014.7
20260905154003 72 50 2.0 9.0 0.00 0.00 0.00 66 1014.7
20260905153503 72 51 2.0 6.0 0.00 0.00 0.00 66 1014.6
20260905153004 72 51 2.0 6.0 0.00 0.00 0.00 66 1014.7
20260905152503 72 51 2.0 6.0 0.00 0.00 0.00 70 1014.7
20260905152003 71 52 3.0 7.0 0.00 0.00 0.00 68 1014.7
20260905151503 71 54 3.0 7.0 0.00 0.00 0.00 70 1014.7
20260905151003 70 57 3.0 10.0 0.00 0.00 0.00 69 1014.8
20260905150503 70 16 4.0 13.0 0.00 0.00 0.00 70 1014.9
20260905150003 70 274 3.0 13.0 0.00 0.00 0.00 69 1014.8
20260905145503 71 269 3.0 10.0 0.00 0.00 0.00 68 1014.8
20260905145003 71 259 3.0 10.0 0.00 0.00 0.00 69 1014.8
20260905144503 71 247 3.0 8.0 0.00 0.00 0.00 68 1014.8
20260905144003 71 239 3.0 8.0 0.00 0.00 0.00 72 1014.7
20260905143503 70 234 3.0 8.0 0.00 0.00 0.00 70 1014.8
20260905143003 70 231 2.0 8.0 0.00 0.00 0.00 72 1014.7
20260905142503 70 230 1.0 4.0 0.00 0.00 0.00 74 1014.8
20260905142003 70 236 2.0 6.0 0.00 0.00 0.00 74 1014.8
20260905141503 70 245 2.0 6.0 0.00 0.00 0.00 74 1014.8
20260905141024 69 247 2.0 5.0 0.00 0.00 0.00 75 1014.9
20260905140503 69 246 2.0 7.0 0.00 0.00 0.00 76 1014.8
20260905140003 69 246 2.0 7.0 0.00 0.00 0.00 76 1014.7
20260905135503 69 245 2.0 5.0 0.00 0.00 0.00 78 1014.8
20260905135003 68 244 2.0 5.0 0.00 0.00 0.00 78 1014.8
20260905134503 68 242 2.0 7.0 0.00 0.00 0.00 79 1014.7
20260905134003 68 240 3.0 8.0 0.00 0.00 0.00 80 1014.8
20260905133503 68 239 2.0 8.0 0.00 0.00 0.00 82 1014.8
20260905133024 68 239 2.0 7.0 0.00 0.00 0.00 85 1014.9
20260905132503 67 238 1.0 4.0 0.00 0.00 0.00 87 1014.9
20260905132003 67 237 1.0 4.0 0.00 0.00 0.00 90 1014.8
20260905131524 66 237 1.0 4.0 0.00 0.00 0.00 91 1014.9
20260905131024 65 237 1.0 4.0 0.00 0.00 0.00 92 1014.9
20260905130503 64 237 1.0 4.0 0.00 0.00 0.00 93 1015.0
20260905130003 64 236 1.0 3.0 0.00 0.00 0.00 93 1015.0
20260905125524 64 236 0.0 2.0 0.00 0.00 0.00 94 1015.0
20260905125024 64 236 0.0 1.0 0.00 0.00 0.00 93 1014.9
20260905124503 63 0 0.0 0.0 0.00 0.00 0.00 93 1015.0
20260905124024 63 0 0.0 0.0 0.00 0.00 0.00 93 1014.9
20260905123503 63 0 0.0 0.0 0.00 0.00 0.00 94 1014.9
20260905123003 63 0 0.0 0.0 0.00 0.00 0.00 95 1014.9
20260905122503 62 0 0.0 0.0 0.00 0.00 0.00 94 1014.9
20260905122003 61 0 0.0 0.0 0.00 0.00 0.00 94 1015.0
20260905121503 60 0 0.0 0.0 0.00 0.00 0.00 94 1015.0
20260905121003 60 0 0.0 0.0 0.00 0.00 0.00 94 1015.0
20260905120503 59 0 0.0 0.0 0.00 0.00 0.00 94 1015.0
20260905120024 59 0 0.0 0.0 0.00 0.00 0.00 94 1015.1
20260905115503 58 0 0.0 0.0 0.00 0.00 0.00 93 1015.0
20260905115003 58 0 0.0 0.0 0.00 0.00 0.00 94 1015.0
20260905114503 57 0 0.0 0.0 0.00 0.00 0.00 93 1015.0
20260905114003 57 0 0.0 0.0 0.00 0.00 0.00 93 1015.0
20260905113503 57 0 0.0 0.0 0.00 0.00 0.00 93 1014.9
20260905113003 56 0 0.0 0.0 0.00 0.00 0.00 93 1015.0
20260905112503 56 0 0.0 0.0 0.00 0.00 0.00 93 1014.8
20260905112003 56 0 0.0 0.0 0.00 0.00 0.00 93 1014.6
20260905111524 56 0 0.0 0.0 0.00 0.00 0.00 93 1014.4
20260905111003 56 0 0.0 0.0 0.00 0.00 0.00 93 1014.3
20260905110503 56 0 0.0 0.0 0.00 0.00 0.00 93 1014.2
20260905110003 56 0 0.0 0.0 0.00 0.00 0.00 93 1014.1
20260905105503 56 0 0.0 0.0 0.00 0.00 0.00 92 1014.1
20260905105024 56 0 0.0 0.0 0.00 0.00 0.00 92 1014.1
20260905104503 56 0 0.0 0.0 0.00 0.00 0.00 93 1014.0
20260905104024 56 0 0.0 0.0 0.00 0.00 0.00 93 1014.1
20260905103503 56 0 0.0 0.0 0.00 0.00 0.00 93 1014.2
20260905103003 56 0 0.0 0.0 0.00 0.00 0.00 93 1014.1
20260905102503 56 0 0.0 0.0 0.00 0.00 0.00 93 1014.1
20260905102024 56 0 0.0 0.0 0.00 0.00 0.00 93 1014.1
20260905101524 56 0 0.0 0.0 0.00 0.00 0.00 93 1014.2
20260905101003 56 0 0.0 0.0 0.00 0.00 0.00 92 1014.3
20260905100503 56 0 0.0 0.0 0.00 0.00 0.00 92 1014.1
20260905100003 56 0 0.0 0.0 0.00 0.00 0.00 92 1014.0
20260905095503 57 0 0.0 0.0 0.00 0.01 0.00 92 1014.0
20260905095003 57 0 0.0 0.0 0.00 0.01 0.00 92 1014.0
20260905094503 57 0 0.0 0.0 0.00 0.01 0.00 92 1013.8
20260905094003 57 0 0.0 0.0 0.00 0.01 0.00 92 1013.9
20260905093503 57 0 0.0 0.0 0.00 0.01 0.00 92 1013.8
20260905093003 57 0 0.0 0.0 0.00 0.01 0.00 92 1013.9
20260905092503 57 0 0.0 0.0 0.00 0.01 0.00 92 1013.9
20260905092003 57 0 0.0 0.0 0.00 0.01 0.00 92 1013.7
20260905091503 57 0 0.0 0.0 0.00 0.01 0.00 92 1013.8
20260905091003 57 0 0.0 0.0 0.00 0.01 0.00 92 1013.8
20260905090503 57 0 0.0 0.0 0.00 0.01 0.00 92 1013.7
20260905090024 58 0 0.0 0.0 0.00 0.01 0.00 92 1013.7
20260905085503 58 0 0.0 0.0 0.00 0.01 0.00 92 1013.7
20260905085003 58 0 0.0 0.0 0.00 0.01 0.00 92 1013.5
20260905084503 58 0 0.0 0.0 0.00 0.01 0.00 92 1013.4
20260905084003 58 0 0.0 0.0 0.00 0.01 0.00 92 1013.4
20260905083503 58 0 0.0 0.0 0.00 0.01 0.00 92 1013.3
20260905083024 58 0 0.0 0.0 0.00 0.01 0.00 92 1013.4
20260905082524 59 0 0.0 0.0 0.00 0.01 0.00 92 1013.3
20260905082024 59 0 0.0 0.0 0.00 0.01 0.00 92 1013.3
20260905081503 59 0 0.0 0.0 0.00 0.01 0.00 92 1013.3
20260905081003 59 0 0.0 0.0 0.00 0.01 0.00 92 1013.4
20260905080503 59 0 0.0 0.0 0.00 0.01 0.00 92 1013.4
20260905080003 59 0 0.0 0.0 0.00 0.01 0.00 92 1013.3
20260905075503 59 0 0.0 0.0 0.00 0.01 0.00 92 1013.4
20260905075024 59 0 0.0 0.0 0.00 0.01 0.00 92 1013.4
20260905074524 60 0 0.0 0.0 0.00 0.01 0.00 92 1013.4
20260905074003 60 0 0.0 0.0 0.00 0.01 0.00 92 1013.5
20260905073503 60 0 0.0 0.0 0.00 0.01 0.00 92 1013.5
20260905073003 60 0 0.0 0.0 0.00 0.01 0.00 92 1013.5
20260905072524 60 0 0.0 0.0 0.00 0.01 0.00 92 1013.6
20260905072003 60 0 0.0 0.0 0.00 0.01 0.00 92 1013.8
20260905071503 60 0 0.0 0.0 0.00 0.01 0.00 92 1013.8
20260905071003 60 0 0.0 0.0 0.00 0.01 0.00 92 1013.9
20260905070503 60 0 0.0 0.0 0.00 0.01 0.00 91 1013.9
20260905070003 60 0 0.0 0.0 0.00 0.01 0.00 91 1014.0
20260905065503 61 0 0.0 0.0 0.00 0.01 0.00 92 1013.9
20260905065003 61 0 0.0 0.0 0.00 0.01 0.00 92 1013.9
20260905064503 61 0 0.0 0.0 0.00 0.01 0.00 92 1013.9
20260905064003 61 0 0.0 0.0 0.00 0.01 0.00 92 1013.8
20260905063503 61 0 0.0 0.0 0.00 0.01 0.00 92 1014.0
20260905063003 61 0 0.0 0.0 0.00 0.01 0.00 91 1014.0
20260905062503 61 0 0.0 0.0 0.00 0.01 0.00 92 1014.0
20260905062003 61 0 0.0 0.0 0.00 0.01 0.00 92 1014.0
20260905061503 61 0 0.0 0.0 0.00 0.01 0.00 92 1014.0
20260905061003 62 0 0.0 0.0 0.00 0.01 0.00 92 1014.0
20260905060503 62 0 0.0 0.0 0.00 0.01 0.00 91 1014.0
20260905060003 62 0 0.0 0.0 0.00 0.01 0.00 91 1014.1
20260905055503 62 0 0.0 0.0 0.00 0.01 0.00 91 1014.1
20260905055003 62 0 0.0 0.0 0.00 0.01 0.00 91 1014.0
20260905054503 62 0 0.0 0.0 0.00 0.01 0.00 91 1014.0
20260905054003 62 236 0.0 1.0 0.00 0.01 0.00 91 1014.1
20260905053503 62 236 0.0 1.0 0.00 0.01 0.00 91 1014.1
20260905053003 62 0 0.0 0.0 0.00 0.01 0.00 91 1014.3
20260905052503 62 0 0.0 0.0 0.00 0.01 0.00 91 1014.1
20260905052003 62 0 0.0 0.0 0.00 0.01 0.00 91 1014.2
20260905051503 62 0 0.0 0.0 0.00 0.01 0.00 91 1014.2
20260905051003 62 0 0.0 0.0 0.00 0.01 0.00 91 1014.1
20260905050503 62 0 0.0 0.0 0.00 0.01 0.00 91 1014.0
20260905050003 62 0 0.0 0.0 0.00 0.01 0.00 91 1014.0
20260905045503 62 0 0.0 0.0 0.00 0.01 0.00 91 1014.2
20260905045003 63 0 0.0 0.0 0.00 0.01 0.00 91 1014.3
20260905044503 63 0 0.0 0.0 0.00 0.01 0.00 90 1014.2
20260905044003 63 0 0.0 0.0 0.00 0.01 0.00 90 1014.3
20260905043503 63 0 0.0 0.0 0.00 0.01 0.00 90 1014.3
20260905043003 63 0 0.0 0.0 0.00 0.01 0.00 90 1014.3
20260905042524 64 0 0.0 0.0 0.00 0.01 0.00 90 1014.3
20260905042003 64 0 0.0 0.0 0.00 0.01 0.00 90 1014.2
20260905041503 64 0 0.0 0.0 0.00 0.01 0.00 90 1014.1
20260905041003 64 0 0.0 0.0 0.00 0.01 0.00 90 1014.1
20260905040524 64 0 0.0 0.0 0.00 0.01 0.00 90 1014.1
20260905040003 64 0 0.0 0.0 0.00 0.01 0.00 90 1014.2
20260905035503 64 0 0.0 0.0 0.00 0.01 0.01 90 1014.1
20260905035003 64 0 0.0 0.0 0.00 0.01 0.01 90 1014.2
20260905034524 64 0 0.0 0.0 0.00 0.01 0.01 90 1014.3
20260905034003 65 0 0.0 0.0 0.00 0.01 0.01 90 1014.4
20260905033503 65 0 0.0 0.0 0.00 0.01 0.01 89 1014.4
20260905033003 65 0 0.0 0.0 0.00 0.01 0.01 89 1014.4
20260905032503 65 0 0.0 0.0 0.00 0.01 0.01 89 1014.3
20260905032003 65 0 0.0 0.0 0.00 0.01 0.01 89 1014.3
20260905031503 66 0 0.0 0.0 0.00 0.01 0.01 89 1014.3
20260905031003 66 0 0.0 0.0 0.00 0.01 0.01 89 1014.3
20260905030503 66 0 0.0 0.0 0.00 0.01 0.01 89 1014.1
20260905030024 66 0 0.0 0.0 0.00 0.01 0.01 89 1014.1
20260905025503 66 0 0.0 0.0 0.00 0.01 0.01 88 1014.1
20260905025003 66 0 0.0 0.0 0.00 0.01 0.01 88 1014.4
20260905024524 67 0 0.0 0.0 0.00 0.01 0.01 88 1014.2
20260905024003 67 0 0.0 0.0 0.00 0.01 0.01 88 1014.1
20260905023503 67 0 0.0 0.0 0.00 0.01 0.01 88 1014.2